WXM80 ListenWXM80 Stop

You find our weather info also at:

UK Metoffice

WeatherCloud

Weather Underground

Northeastern Weather Network

AWEKAS

Citizen Weather Observer Program (CWOP)

HAMweather, WeatherForYou, PWS Weather


Weather Underground History page Text

Daily Summary for February 09, 2018 Units:  Metric    English   Both
« Previous Day
Next Day »
Daily Weekly Monthly Yearly Custom
  High: Low: Average:
Temperature: -17.8 °C -4.3 °C -0.5 °C
Dew Point: -17.8 °C -9 °C -5.8 °C
Humidity: Humidity % 48 % 68 %
Wind Speed: 0 km/h 0 km/h 3.1 km/h
Wind Gust: 0 km/h - -
Wind:- - SW
Pressure: 0 hPa 1021.2 hPa -
Precipitation: 0 mm    
Historical Graphs
 
 
Tabular Data for February 09, 2018
Time Temperature Dew Point Pressure Wind Wind Speed Wind Gust Humidity Rainfall Rate (Hourly)
-17.8 °C -17.8 °C 0 hPa Calm     Humidity % 0 mm
00:01 -4.2 °C -8.2 °C 1022.6 hPa West 1.1 km/h 4.8 km/h 74 % 0 mm
00:06 -4.3 °C -8.2 °C 1022.6 hPa West 1.3 km/h 3.7 km/h 74 % 0 mm
00:11 -4.3 °C -8.2 °C 1022.6 hPa West 2.9 km/h 4.8 km/h 74 % 0 mm
00:17 -4.3 °C -8.1 °C 1022.6 hPa WSW 2.4 km/h 5.6 km/h 75 % 0 mm
00:22 -4.2 °C -8.1 °C 1022.9 hPa West 4.5 km/h 18.5 km/h 74 % 0 mm
00:27 -3.9 °C -8.1 °C 1022.9 hPa WSW 5.8 km/h 13 km/h 73 % 0 mm
00:32 -3.7 °C -8.1 °C 1022.9 hPa West 3.1 km/h 11.1 km/h 72 % 0 mm
00:37 -3.5 °C -8 °C 1022.6 hPa WNW 5.3 km/h 16.7 km/h 71 % 0 mm
00:42 -3.3 °C -7.8 °C 1022.9 hPa West 5 km/h 14.8 km/h 71 % 0 mm
00:47 -3.2 °C -7.9 °C 1022.9 hPa West 6.9 km/h 9.3 km/h 70 % 0 mm
00:52 -3 °C -7.9 °C 1022.9 hPa West 5.8 km/h 9.3 km/h 69 % 0 mm
00:57 -2.9 °C -7.8 °C 1022.9 hPa West 7.1 km/h 14.8 km/h 69 % 0 mm
01:02 -2.8 °C -7.7 °C 1022.9 hPa West 4.7 km/h 11.1 km/h 69 % 0 mm
01:07 -2.8 °C -7.9 °C 1023.2 hPa WNW 3.4 km/h 11.3 km/h 68 % 0 mm
01:12 -2.7 °C -7.8 °C 1023.2 hPa WNW 8.5 km/h 13 km/h 68 % 0 mm
01:17 -2.7 °C -7.8 °C 1023.2 hPa West 4.8 km/h 9.3 km/h 68 % 0 mm
01:22 -2.7 °C -7.9 °C 1023.2 hPa WNW 5.5 km/h 11.1 km/h 67 % 0 mm
01:27 -2.6 °C -7.9 °C 1023.2 hPa West 10 km/h 10 km/h 67 % 0 mm
01:32 -2.6 °C -7.9 °C 1023.6 hPa West 5 km/h 9.3 km/h 67 % 0 mm
01:37 -2.6 °C -7.8 °C 1023.6 hPa WSW 2.3 km/h 14.8 km/h 67 % 0 mm
01:43 -2.6 °C -7.9 °C 1023.6 hPa WNW 5.5 km/h 6.4 km/h 67 % 0 mm
01:48 -2.6 °C -7.9 °C 1023.9 hPa WSW 3.9 km/h 13 km/h 67 % 0 mm
01:53 -2.6 °C -7.9 °C 1023.6 hPa WSW 1.9 km/h 5.6 km/h 67 % 0 mm
01:58 -2.6 °C -7.9 °C 1023.9 hPa WSW 7.7 km/h 13 km/h 67 % 0 mm
02:03 -2.6 °C -7.9 °C 1023.9 hPa West 3.7 km/h 7.4 km/h 67 % 0 mm
02:08 -2.7 °C -7.9 °C 1024.3 hPa West 2.7 km/h 5.6 km/h 67 % 0 mm
02:13 -2.7 °C -7.9 °C 1024.3 hPa West 8.4 km/h 16.7 km/h 67 % 0 mm
02:18 -2.7 °C -7.9 °C 1024.3 hPa West 7.7 km/h 14.8 km/h 67 % 0 mm
02:19 -2.7 °C -7.9 °C 1024.3 hPa NW 6.9 km/h 14.8 km/h 67 % 0 mm
02:24 -2.7 °C -7.9 °C 1024.3 hPa NNW 4.7 km/h 9.3 km/h 67 % 0 mm
02:29 -2.7 °C -8.2 °C 1024.3 hPa West 7.1 km/h 11.1 km/h 66 % 0 mm
02:34 -2.7 °C -8.2 °C 1024.3 hPa WNW 5.8 km/h 14.8 km/h 66 % 0 mm
02:39 -2.7 °C -8.2 °C 1024.6 hPa West 4.7 km/h 9.3 km/h 66 % 0 mm
02:44 -2.7 °C -8.2 °C 1024.6 hPa West 7.1 km/h 11.1 km/h 66 % 0 mm
02:49 -2.6 °C -8.1 °C 1024.6 hPa NW 8 km/h 14.8 km/h 66 % 0 mm
02:54 -2.6 °C -8.1 °C 1024.6 hPa WNW 4.8 km/h 16.7 km/h 66 % 0 mm
02:59 -2.6 °C -8.3 °C 1024.6 hPa West 2.4 km/h 5.6 km/h 65 % 0 mm
03:04 -2.6 °C -8.1 °C 1024.6 hPa SW 5.6 km/h 8 km/h 66 % 0 mm
03:10 -2.6 °C -8.1 °C 1024.6 hPa SW 10.8 km/h 18.5 km/h 66 % 0 mm
03:15 -2.6 °C -8.2 °C 1024.6 hPa WNW 6 km/h 14.8 km/h 65 % 0 mm
03:20 -2.6 °C -8.2 °C 1024.6 hPa WSW 6.6 km/h 11.1 km/h 65 % 0 mm
03:25 -2.6 °C -8.2 °C 1024.6 hPa West 8.2 km/h 11.3 km/h 65 % 0 mm
03:30 -2.5 °C -8.2 °C 1024.9 hPa WSW 7.1 km/h 9.3 km/h 65 % 0 mm
03:35 -2.6 °C -8.1 °C 1024.9 hPa WNW 9 km/h 16.7 km/h 66 % 0 mm
03:40 -2.6 °C -8.1 °C 1024.9 hPa West 5.3 km/h 11.1 km/h 66 % 0 mm
03:45 -2.6 °C -8.1 °C 1024.9 hPa WNW 3.9 km/h 7.4 km/h 66 % 0 mm
03:50 -2.6 °C -7.9 °C 1024.6 hPa WNW 6.8 km/h 14.8 km/h 67 % 0 mm
03:55 -2.6 °C -8.1 °C 1024.6 hPa WNW 2.1 km/h 6.4 km/h 66 % 0 mm
04:00 -2.7 °C -8.2 °C 1024.6 hPa West 1.9 km/h 3.7 km/h 66 % 0 mm
04:05 -2.7 °C -8 °C 1024.6 hPa WNW 3.1 km/h 5.6 km/h 67 % 0 mm
04:10 -2.7 °C -7.8 °C 1024.6 hPa WSW 0.5 km/h 3.2 km/h 68 % 0 mm
04:16 -2.8 °C -7.9 °C 1024.6 hPa West 1.6 km/h 4.8 km/h 68 % 0 mm
04:21 -2.8 °C -7.9 °C 1024.6 hPa West 1.6 km/h 9.7 km/h 68 % 0 mm
04:26 -2.8 °C -7.7 °C 1024.6 hPa WNW 3.2 km/h 8 km/h 69 % 0 mm
04:31 -2.9 °C -7.6 °C 1024.9 hPa West 2.9 km/h 7.4 km/h 70 % 0 mm
04:36 -2.9 °C -7.7 °C 1024.9 hPa WSW 0.8 km/h 5.6 km/h 70 % 0 mm
04:41 -2.9 °C -7.7 °C 1024.9 hPa West 0.5 km/h 5.6 km/h 70 % 0 mm
04:46 -3 °C -7.7 °C 1024.9 hPa West 2.4 km/h 5.6 km/h 70 % 0 mm
04:51 -3 °C -7.7 °C 1024.9 hPa NW 5.6 km/h 9.3 km/h 70 % 0 mm
04:56 -3.1 °C -7.6 °C 1024.9 hPa WNW 2.6 km/h 5.6 km/h 71 % 0 mm
05:01 -3.1 °C -7.6 °C 1024.6 hPa Calm   3.7 km/h 71 % 0 mm
05:06 -3.1 °C -7.6 °C 1024.9 hPa WNW 1 km/h 5.6 km/h 71 % 0 mm
05:11 -3.2 °C -7.7 °C 1024.6 hPa WNW 0.2 km/h 3.7 km/h 71 % 0 mm
05:16 -3.2 °C -7.7 °C 1024.6 hPa Calm   5.6 km/h 71 % 0 mm
05:21 -3.2 °C -7.7 °C 1024.6 hPa NW 0.3 km/h 1.9 km/h 71 % 0 mm
05:26 -3.2 °C -7.7 °C 1024.6 hPa WNW 5.5 km/h 7.4 km/h 71 % 0 mm
05:31 -3.3 °C -7.8 °C 1024.3 hPa WNW 3.2 km/h 9.3 km/h 71 % 0 mm
05:36 -3.3 °C -8 °C 1024.6 hPa NW 6.1 km/h 6.1 km/h 70 % 0 mm
05:41 -3.3 °C -7.8 °C 1024.3 hPa NW 1.4 km/h 3.2 km/h 71 % 0 mm
05:46 -3.3 °C -7.8 °C 1024.6 hPa NNW 1.3 km/h 5.6 km/h 71 % 0 mm
05:51 -3.3 °C -7.8 °C 1024.9 hPa NW 2.7 km/h 7.4 km/h 71 % 0 mm
05:57 -3.3 °C -7.8 °C 1024.9 hPa WNW 3.5 km/h 5.6 km/h 71 % 0 mm
06:02 -3.3 °C -8 °C 1024.6 hPa NNW 0.3 km/h 3.7 km/h 70 % 0 mm
06:07 -3.3 °C -8 °C 1024.6 hPa WNW 4.7 km/h 5.6 km/h 70 % 0 mm
06:12 -3.3 °C -7.8 °C 1024.3 hPa NNW 2.3 km/h 5.6 km/h 71 % 0 mm
06:17 -3.3 °C -7.8 °C 1024.3 hPa Calm   1.9 km/h 71 % 0 mm
06:22 -3.4 °C -7.9 °C 1024.6 hPa NW 1.8 km/h 5.6 km/h 71 % 0 mm
06:27 -3.4 °C -8.1 °C 1024.6 hPa NW 1 km/h 3.7 km/h 70 % 0 mm
06:32 -3.4 °C -8.1 °C 1024.9 hPa NW 1.4 km/h 5.6 km/h 70 % 0 mm
06:37 -3.4 °C -8.1 °C 1024.9 hPa NW 1.1 km/h 5.6 km/h 70 % 0 mm
06:42 -3.4 °C -8.1 °C 1024.9 hPa NW 1.3 km/h 3.7 km/h 70 % 0 mm
06:47 -3.5 °C -8.2 °C 1025.3 hPa WNW 3.2 km/h 5.6 km/h 70 % 0 mm
06:52 -3.5 °C -8.2 °C 1025.3 hPa WSW 3.1 km/h 5.6 km/h 70 % 0 mm
06:57 -3.6 °C -8.2 °C 1025.3 hPa Calm   5.6 km/h 70 % 0 mm
07:02 -3.6 °C -8.2 °C 1025.6 hPa Calm   1.9 km/h 70 % 0 mm
07:07 -3.6 °C -8.1 °C 1026 hPa West 1 km/h 3.2 km/h 71 % 0 mm
07:12 -3.6 °C -7.9 °C 1026 hPa Calm   3.7 km/h 72 % 0 mm
07:17 -3.7 °C -8 °C 1026 hPa West 0.6 km/h 3.7 km/h 72 % 0 mm
07:22 -3.7 °C -7.8 °C 1026 hPa Calm     73 % 0 mm
07:28 -3.7 °C -7.8 °C 1026.3 hPa West 2.6 km/h 3.7 km/h 73 % 0 mm
07:33 -3.8 °C -7.7 °C 1026.3 hPa Calm     74 % 0 mm
07:38 -3.8 °C -7.7 °C 1026.3 hPa West 1.8 km/h 5.6 km/h 74 % 0 mm
07:43 -3.8 °C -7.6 °C 1026.3 hPa West 1.1 km/h 3.7 km/h 75 % 0 mm
07:48 -3.8 °C -7.6 °C 1026.3 hPa West 1.4 km/h 3.7 km/h 75 % 0 mm
07:53 -3.8 °C -7.6 °C 1026.3 hPa West 0.5 km/h 1.9 km/h 75 % 0 mm
07:58 -3.7 °C -7.5 °C 1026.6 hPa West 2.3 km/h 5.6 km/h 75 % 0 mm
08:03 -3.7 °C -7.4 °C 1026.6 hPa Calm     75 % 0 mm
08:08 -3.6 °C -7.4 °C 1027 hPa West 1.1 km/h 3.7 km/h 75 % 0 mm
08:13 -3.5 °C -7.3 °C 1027 hPa West 0.8 km/h 3.2 km/h 75 % 0 mm
08:18 -3.3 °C -7.3 °C 1027 hPa WSW 1.1 km/h 5.6 km/h 74 % 0 mm
08:23 -3.2 °C -7.4 °C 1027 hPa WSW 0.6 km/h 3.7 km/h 73 % 0 mm
08:28 -3.1 °C -7.4 °C 1027 hPa Calm   1.9 km/h 72 % 0 mm
08:33 -2.8 °C -7.2 °C 1027 hPa WSW 0.2 km/h 1.9 km/h 72 % 0 mm
08:38 -2.7 °C -7 °C 1026.6 hPa Calm     72 % 0 mm
08:43 -2.4 °C -7 °C 1026.6 hPa WSW 0.5 km/h 1.6 km/h 71 % 0 mm
08:49 -2.2 °C -7.2 °C 1026.6 hPa WSW 0.5 km/h 1.9 km/h 69 % 0 mm
08:54 -1.9 °C -7.3 °C 1026.6 hPa WSW 0.2 km/h 5.6 km/h 67 % 0 mm
08:59 -1.6 °C -7.3 °C 1026.6 hPa Calm     65 % 0 mm
09:04 -1.3 °C -7 °C 1026.6 hPa West 0.8 km/h 3.7 km/h 65 % 0 mm
09:09 -0.9 °C -6.9 °C 1026.6 hPa Calm     64 % 0 mm
09:14 -0.7 °C -7.1 °C 1026.6 hPa NW 1.8 km/h 5.6 km/h 62 % 0 mm
09:19 -0.6 °C -7.4 °C 1026.6 hPa NW 3.5 km/h 5.6 km/h 60 % 0 mm
09:24 -0.4 °C -7.3 °C 1026.6 hPa West 1.4 km/h 5.6 km/h 60 % 0 mm
09:29 -0.4 °C -7.7 °C 1026.6 hPa West 3.4 km/h 5.6 km/h 58 % 0 mm
09:34 -0.4 °C -7.7 °C 1026.6 hPa SSW 1.9 km/h 5.6 km/h 58 % 0 mm
09:39 -0.3 °C -7.6 °C 1026.6 hPa SSW 0.2 km/h 1.9 km/h 58 % 0 mm
09:44 -0.4 °C -7.9 °C 1026.6 hPa WSW 1.8 km/h 4.8 km/h 57 % 0 mm
09:49 -0.4 °C -8.2 °C 1026.6 hPa WSW 1.1 km/h 1.9 km/h 56 % 0 mm
09:54 -0.4 °C -7.9 °C 1026.6 hPa WSW 1.9 km/h 5.6 km/h 57 % 0 mm
09:59 -0.4 °C -7.9 °C 1027 hPa WSW 1.6 km/h 6.4 km/h 57 % 0 mm
10:04 -0.5 °C -8.4 °C 1027 hPa West 3.1 km/h 5.6 km/h 55 % 0 mm
10:09 -0.5 °C -8.9 °C 1026.6 hPa Calm   3.7 km/h 53 % 0 mm
10:14 -0.6 °C -8.7 °C 1026.6 hPa Calm     54 % 0 mm
10:19 -0.6 °C -9 °C 1027 hPa Calm     53 % 0 mm
10:24 -0.6 °C -8.5 °C 1027 hPa West 0.2 km/h   55 % 0 mm
10:29 -0.6 °C -8.5 °C 1027 hPa West 1.1 km/h 3.7 km/h 55 % 0 mm
10:35 -0.6 °C -8.3 °C 1027 hPa Calm   1.9 km/h 56 % 0 mm
10:40 -0.6 °C -8.3 °C 1027 hPa Calm     56 % 0 mm
10:45 -0.3 °C -8.1 °C 1027 hPa West 1.6 km/h 5.6 km/h 56 % 0 mm
10:50 -0.2 °C -8.1 °C 1027 hPa West 4.8 km/h 8 km/h 55 % 0 mm
10:55 0.2 °C -8.1 °C 1027 hPa WSW 5 km/h 8 km/h 54 % 0 mm
11:00 0.3 °C -8.2 °C 1027 hPa WNW 0.6 km/h 1.9 km/h 53 % 0 mm
11:05 0.7 °C -7.3 °C 1027 hPa Calm     55 % 0 mm
11:10 0.9 °C -7.6 °C 1027 hPa SSW 3.5 km/h 11.1 km/h 53 % 0 mm
11:15 1.1 °C -7.7 °C 1027 hPa SSW 2.9 km/h 11.1 km/h 52 % 0 mm
11:20 1.3 °C -7.8 °C 1027 hPa SE 4.2 km/h 13 km/h 51 % 0 mm
11:25 1.5 °C -7.3 °C 1027 hPa South 4.7 km/h 5.6 km/h 52 % 0 mm
11:30 1.8 °C -7.6 °C 1026.6 hPa WSW 1.8 km/h 7.4 km/h 50 % 0 mm
11:35 1.9 °C -7.7 °C 1026.6 hPa South 3.7 km/h 7.4 km/h 49 % 0 mm
11:40 2.1 °C -7.2 °C 1026.6 hPa Calm   5.6 km/h 50 % 0 mm
11:45 2.2 °C -7.7 °C 1026.6 hPa WSW 10.6 km/h 16.7 km/h 48 % 0 mm
11:50 2.2 °C -7.4 °C 1026.6 hPa WSW 4.5 km/h 7.4 km/h 49 % 0 mm
11:55 2.2 °C -7.7 °C 1026.6 hPa SW 4.2 km/h 9.3 km/h 48 % 0 mm
12:01 2.2 °C -7.2 °C 1026.3 hPa SSW 9 km/h 12.9 km/h 50 % 0 mm
12:06 2.1 °C -7.8 °C 1026.3 hPa SSW 6 km/h 11.1 km/h 48 % 0 mm
12:11 2 °C -7.6 °C 1026.3 hPa South 7.2 km/h 13 km/h 49 % 0 mm
12:16 1.9 °C -7.4 °C 1026 hPa WSW 9.7 km/h 14.8 km/h 50 % 0 mm
12:21 2 °C -7.1 °C 1026 hPa SSE 7.9 km/h 13 km/h 51 % 0 mm
12:26 1.9 °C -7.2 °C 1025.6 hPa South 8 km/h 13 km/h 51 % 0 mm
12:31 1.9 °C -7.2 °C 1025.6 hPa SW 11.7 km/h 18.5 km/h 51 % 0 mm
12:36 1.9 °C -6.7 °C 1025.6 hPa SW 3.4 km/h 7.4 km/h 53 % 0 mm
12:41 2 °C -6.3 °C 1025.3 hPa South 7.7 km/h 13 km/h 54 % 0 mm
12:46 2.1 °C -6.1 °C 1025.3 hPa SSW 7.2 km/h 11.1 km/h 55 % 0 mm
12:51 2.1 °C -6.5 °C 1024.9 hPa SW 5.8 km/h 9.7 km/h 53 % 0 mm
12:56 2.1 °C -6.3 °C 1024.9 hPa SSE 5.8 km/h 9.3 km/h 54 % 0 mm
13:01 2.1 °C -6.3 °C 1024.9 hPa SSW 6.4 km/h 9.3 km/h 54 % 0 mm
13:06 2.1 °C -6.3 °C 1024.6 hPa SSW 5.1 km/h 11.3 km/h 54 % 0 mm
13:11 2 °C -6.3 °C 1024.6 hPa SSW 3.4 km/h 7.4 km/h 54 % 0 mm
13:16 1.9 °C -6.4 °C 1024.6 hPa South 5.5 km/h 12.9 km/h 54 % 0 mm
13:21 1.9 °C -5.9 °C 1024.6 hPa SSW 0.8 km/h 5.6 km/h 56 % 0 mm
13:26 1.9 °C -5.9 °C 1024.6 hPa SSW 7.4 km/h 11.3 km/h 56 % 0 mm
13:31 1.9 °C -6 °C 1024.6 hPa SSW 4.8 km/h 8 km/h 56 % 0 mm
13:36 1.9 °C -5.7 °C 1024.6 hPa SW 6.4 km/h 16.7 km/h 57 % 0 mm
13:42 1.9 °C -5.9 °C 1024.6 hPa SSW 8.2 km/h 9.7 km/h 56 % 0 mm
13:47 1.9 °C -6 °C 1024.6 hPa SSW 2.9 km/h 7.4 km/h 56 % 0 mm
13:52 1.9 °C -5.7 °C 1024.6 hPa SSW 4.5 km/h 13 km/h 57 % 0 mm
13:57 1.9 °C -5.9 °C 1024.3 hPa South 6 km/h 9.3 km/h 56 % 0 mm
14:02 1.8 °C -5.8 °C 1024.3 hPa South 2.9 km/h 7.4 km/h 57 % 0 mm
14:07 1.8 °C -5.6 °C 1024.3 hPa SSW 6 km/h 9.3 km/h 58 % 0 mm
14:12 1.9 °C -5.5 °C 1024.3 hPa West 7.9 km/h 14.8 km/h 58 % 0 mm
14:17 1.9 °C -5.4 °C 1024.3 hPa SSW 2.9 km/h 6.4 km/h 58 % 0 mm
14:22 1.9 °C -5.7 °C 1024.3 hPa SSW 3.5 km/h 7.4 km/h 57 % 0 mm
14:27 1.9 °C -5.4 °C 1024.3 hPa South 2.7 km/h 5.6 km/h 58 % 0 mm
14:32 1.9 °C -5.4 °C 1024.3 hPa South 5 km/h 8 km/h 58 % 0 mm
14:37 1.9 °C -5.5 °C 1023.9 hPa SSW 4.5 km/h 9.3 km/h 58 % 0 mm
14:42 1.8 °C -5.6 °C 1023.9 hPa SSW 9 km/h 14.8 km/h 58 % 0 mm
14:47 1.8 °C -5.4 °C 1023.9 hPa South 0.5 km/h 7.4 km/h 59 % 0 mm
14:52 1.7 °C -5.4 °C 1023.9 hPa SSE 5.1 km/h 9.3 km/h 59 % 0 mm
14:57 1.7 °C -5.1 °C 1023.9 hPa SSW 6 km/h 9.7 km/h 61 % 0 mm
15:02 1.6 °C -5.2 °C 1023.9 hPa SW 7.4 km/h 9.3 km/h 61 % 0 mm
15:08 1.5 °C -5.2 °C 1023.9 hPa South 6.3 km/h 8 km/h 61 % 0 mm
15:13 1.3 °C -5.2 °C 1023.9 hPa SSW 2.9 km/h 9.3 km/h 62 % 0 mm
15:18 1.3 °C -5.2 °C 1024.3 hPa SSW 4.2 km/h 9.7 km/h 62 % 0 mm
15:23 1.2 °C -5.1 °C 1024.3 hPa South 3.2 km/h 7.4 km/h 63 % 0 mm
15:28 1.1 °C -5.2 °C 1024.3 hPa South 8.5 km/h 16.7 km/h 63 % 0 mm
15:33 0.9 °C -5.1 °C 1024.3 hPa SSW 2.4 km/h 9.3 km/h 64 % 0 mm
15:38 0.9 °C -5.1 °C 1024.3 hPa SSW 7.4 km/h 14.8 km/h 64 % 0 mm
15:43 0.8 °C -5 °C 1023.9 hPa SSW 2.6 km/h 9.3 km/h 65 % 0 mm
15:48 0.8 °C -4.8 °C 1023.9 hPa SW 6.8 km/h 11.3 km/h 66 % 0 mm
15:53 0.7 °C -4.9 °C 1024.3 hPa West 6.8 km/h 12.9 km/h 66 % 0 mm
15:57 0.7 °C -4.9 °C 1024.3 hPa SW 6.6 km/h 13 km/h 66 % 0 mm
16:02 0.7 °C -4.8 °C 1024.3 hPa South 3.5 km/h 6.4 km/h 67 % 0 mm
16:08 0.7 °C -4.8 °C 1023.9 hPa South 6.8 km/h 13 km/h 67 % 0 mm
16:13 0.6 °C -4.8 °C 1023.9 hPa SSW 1.6 km/h 7.4 km/h 67 % 0 mm
16:18 0.7 °C -4.6 °C 1023.9 hPa South 5.3 km/h 9.7 km/h 68 % 0 mm
16:23 0.7 °C -4.6 °C 1023.9 hPa SSW 7.1 km/h 11.3 km/h 68 % 0 mm
16:28 0.7 °C -4.6 °C 1023.9 hPa SSW 6.9 km/h 11.3 km/h 68 % 0 mm
16:33 0.6 °C -4.6 °C 1023.6 hPa SSW 4.3 km/h 9.3 km/h 68 % 0 mm
16:38 0.6 °C -4.6 °C 1023.6 hPa SSE 3.1 km/h 7.4 km/h 68 % 0 mm
16:43 0.6 °C -4.6 °C 1023.6 hPa SSE 3.5 km/h 9.3 km/h 68 % 0 mm
16:48 0.6 °C -4.6 °C 1023.6 hPa South 6.3 km/h 11.3 km/h 68 % 0 mm
16:53 0.6 °C -4.7 °C 1023.6 hPa South 1.6 km/h 6.4 km/h 68 % 0 mm
16:58 0.6 °C -4.7 °C 1023.6 hPa South 5 km/h 7.4 km/h 68 % 0 mm
17:03 0.6 °C -4.7 °C 1023.6 hPa SSW 3.5 km/h 18.5 km/h 68 % 0 mm
17:08 0.5 °C -4.7 °C 1023.6 hPa SSW 3.1 km/h 3.2 km/h 68 % 0 mm
17:13 0.5 °C -4.7 °C 1023.6 hPa Calm   5.6 km/h 68 % 0 mm
17:18 0.5 °C -4.7 °C 1023.6 hPa SW 7.9 km/h 14.8 km/h 68 % 0 mm
17:23 0.5 °C -4.6 °C 1023.6 hPa SSW 3.2 km/h 11.1 km/h 69 % 0 mm
17:29 0.5 °C -4.6 °C 1023.2 hPa South 1.6 km/h 7.4 km/h 69 % 0 mm
17:34 0.5 °C -4.6 °C 1023.6 hPa South 3.4 km/h 7.4 km/h 69 % 0 mm
17:39 0.5 °C -4.3 °C 1023.2 hPa SSW 0.5 km/h 3.7 km/h 70 % 0 mm
17:44 0.5 °C -4.3 °C 1023.2 hPa SSW 3.2 km/h 5.6 km/h 70 % 0 mm
17:49 0.5 °C -4.3 °C 1023.2 hPa SSE 0.8 km/h 3.7 km/h 70 % 0 mm
17:54 0.5 °C -4.2 °C 1022.9 hPa South 4.2 km/h 7.4 km/h 71 % 0 mm
17:59 0.6 °C -4.1 °C 1022.9 hPa SSE 2.7 km/h 5.6 km/h 71 % 0 mm
18:04 0.6 °C -4.1 °C 1022.9 hPa SE 3.1 km/h 9.7 km/h 71 % 0 mm
18:09 0.6 °C -4.1 °C 1023.2 hPa SSE 0.8 km/h 3.7 km/h 71 % 0 mm
18:14 0.6 °C -3.8 °C 1022.9 hPa Calm     72 % 0 mm
18:19 0.6 °C -3.8 °C 1023.2 hPa South 0.2 km/h 1.9 km/h 72 % 0 mm
18:24 0.6 °C -3.8 °C 1022.9 hPa SSW 0.6 km/h 3.2 km/h 72 % 0 mm
18:29 0.7 °C -3.6 °C 1022.9 hPa South 0.3 km/h 1.9 km/h 73 % 0 mm
18:34 0.7 °C -3.6 °C 1022.9 hPa South 3.9 km/h 7.4 km/h 73 % 0 mm
18:39 0.7 °C -3.6 °C 1022.9 hPa South 1.4 km/h 5.6 km/h 73 % 0 mm
18:44 0.7 °C -3.4 °C 1022.9 hPa SE 0.3 km/h 1.6 km/h 74 % 0 mm
18:49 0.7 °C -3.4 °C 1022.9 hPa South 0.6 km/h 5.6 km/h 74 % 0 mm
18:54 0.8 °C -3.3 °C 1022.9 hPa SE 1.4 km/h 4.8 km/h 74 % 0 mm
19:00 0.8 °C -3.3 °C 1022.9 hPa South 2.1 km/h 5.6 km/h 74 % 0 mm
19:05 0.8 °C -3.3 °C 1022.9 hPa South 1.6 km/h 3.7 km/h 74 % 0 mm
19:10 0.8 °C -3.3 °C 1022.9 hPa South 0.8 km/h 5.6 km/h 74 % 0 mm
19:15 0.8 °C -3.1 °C 1023.2 hPa SSW 3.7 km/h 8 km/h 75 % 0 mm
19:20 0.8 °C -3.1 °C 1023.2 hPa SSW 2.3 km/h 5.6 km/h 75 % 0 mm
19:25 0.8 °C -3.1 °C 1023.2 hPa SSW 0.8 km/h 1.9 km/h 75 % 0 mm
19:30 0.8 °C -3.1 °C 1023.2 hPa SSW 1.1 km/h 5.6 km/h 75 % 0 mm
19:35 0.9 °C -2.9 °C 1023.2 hPa South 2.7 km/h 5.6 km/h 76 % 0 mm
19:40 0.9 °C -2.9 °C 1023.2 hPa SW 2.3 km/h 5.6 km/h 76 % 0 mm
19:45 0.9 °C -2.6 °C 1022.9 hPa South 3.7 km/h 7.4 km/h 77 % 0 mm
19:50 0.9 °C -2.6 °C 1022.9 hPa SSW 1.1 km/h 5.6 km/h 77 % 0 mm
19:55 1 °C -2.6 °C 1023.2 hPa SSW 1.6 km/h 5.6 km/h 77 % 0 mm
20:00 1 °C -2.6 °C 1023.2 hPa SSW 2.4 km/h 6.4 km/h 77 % 0 mm
20:05 1.1 °C -2.3 °C 1022.9 hPa SSW 4.2 km/h 5.6 km/h 78 % 0 mm
20:10 1.1 °C -2.3 °C 1022.6 hPa SSW 1.4 km/h 3.2 km/h 78 % 0 mm
20:15 1.1 °C -2.3 °C 1022.6 hPa SSE 3.9 km/h 11.1 km/h 78 % 0 mm
20:20 1.2 °C -2.1 °C 1022.6 hPa SSW 3.1 km/h 7.4 km/h 79 % 0 mm
20:23 1.2 °C -2.1 °C 1022.6 hPa Calm   3.7 km/h 79 % 0 mm
20:28 1.2 °C -2 °C 1022.6 hPa SSE 1.1 km/h 7.4 km/h 79 % 0 mm
20:34 1.2 °C -2 °C 1022.6 hPa SE 1.4 km/h 1.9 km/h 79 % 0 mm
20:39 1.3 °C -1.9 °C 1022.6 hPa SSE 0.2 km/h 1.9 km/h 79 % 0 mm
20:44 1.3 °C -1.9 °C 1022.9 hPa South 1 km/h 5.6 km/h 79 % 0 mm
20:49 1.3 °C -1.9 °C 1022.9 hPa South 0.3 km/h 1.9 km/h 79 % 0 mm
20:54 1.3 °C -1.9 °C 1022.9 hPa SSW 2.1 km/h 6.4 km/h 79 % 0 mm
20:59 1.3 °C -1.9 °C 1022.9 hPa SSW 0.5 km/h 3.7 km/h 79 % 0 mm
21:04 1.3 °C -1.7 °C 1022.6 hPa SSW 3.1 km/h 5.6 km/h 80 % 0 mm
21:09 1.4 °C -1.7 °C 1022.6 hPa Calm   1.9 km/h 80 % 0 mm
21:14 1.4 °C -1.7 °C 1022.6 hPa SSW 1.9 km/h 3.7 km/h 80 % 0 mm
21:19 1.4 °C -1.4 °C 1022.6 hPa Calm     81 % 0 mm
21:24 1.4 °C -1.6 °C 1022.6 hPa Calm     80 % 0 mm
21:29 1.5 °C -1.6 °C 1022.2 hPa Calm   1.9 km/h 80 % 0 mm
21:34 1.5 °C -1.6 °C 1022.2 hPa Calm     80 % 0 mm
21:39 1.6 °C -1.3 °C 1021.9 hPa SSE 0.5 km/h 3.7 km/h 81 % 0 mm
21:44 1.6 °C -1.3 °C 1021.9 hPa SSE 1.6 km/h 3.2 km/h 81 % 0 mm
21:49 1.6 °C -1.3 °C 1021.9 hPa Calm     81 % 0 mm
21:54 1.6 °C -1.3 °C 1022.2 hPa SSW 1.9 km/h 3.2 km/h 81 % 0 mm
22:00 1.7 °C -1.2 °C 1022.2 hPa South 1 km/h 7.4 km/h 81 % 0 mm
22:05 1.7 °C -1.1 °C 1021.9 hPa South 1.1 km/h 6.4 km/h 82 % 0 mm
22:10 1.7 °C -1.1 °C 1021.9 hPa Calm   3.7 km/h 82 % 0 mm
22:15 1.7 °C -1 °C 1021.9 hPa South 1.8 km/h 5.6 km/h 82 % 0 mm
22:20 1.7 °C -1 °C 1021.9 hPa SSW 2.6 km/h 5.6 km/h 82 % 0 mm
22:25 1.8 °C -0.8 °C 1021.9 hPa SSW 3.7 km/h 5.6 km/h 83 % 0 mm
22:30 1.8 °C -0.7 °C 1021.6 hPa South 3.4 km/h 9.3 km/h 83 % 0 mm
22:35 1.9 °C -0.7 °C 1021.6 hPa South 1.8 km/h 3.7 km/h 83 % 0 mm
22:40 1.9 °C -0.7 °C 1021.6 hPa South 2.4 km/h 7.4 km/h 83 % 0 mm
22:45 1.9 °C -0.7 °C 1021.6 hPa SSW 1.3 km/h 6.4 km/h 83 % 0 mm
22:50 2 °C -0.4 °C 1021.9 hPa South 3.4 km/h 5.6 km/h 84 % 0 mm
22:55 2 °C -0.4 °C 1021.6 hPa South 3.7 km/h 5.6 km/h 84 % 0 mm
23:00 2.1 °C -0.4 °C 1021.6 hPa SSW 2.4 km/h 5.6 km/h 84 % 0 mm
23:05 2.1 °C -0.4 °C 1021.2 hPa SSW 1.9 km/h 3.7 km/h 84 % 0 mm
23:10 2.1 °C -0.2 °C 1021.2 hPa South 3.2 km/h 6.4 km/h 85 % 0 mm
23:15 2.1 °C -0.2 °C 1021.6 hPa South 1.4 km/h 5.6 km/h 85 % 0 mm
23:20 2.1 °C -0.2 °C 1021.6 hPa South 3.2 km/h 8 km/h 85 % 0 mm
23:25 2.2 °C -0.1 °C 1021.6 hPa SSW 1.6 km/h 6.4 km/h 85 % 0 mm
23:30 2.2 °C -0.1 °C 1021.6 hPa Calm   1.6 km/h 85 % 0 mm
23:36 2.2 °C -0.1 °C 1021.6 hPa Calm   8 km/h 85 % 0 mm
23:40 2.2 °C -0.1 °C 1021.6 hPa SW 1.6 km/h 4.8 km/h 85 % 0 mm
23:45 2.2 °C -0.1 °C 1021.6 hPa Calm   4.8 km/h 85 % 0 mm
23:50 2.2 °C -0.1 °C 1021.2 hPa Calm     85 % 0 mm
23:55 2.2 °C -0.1 °C 1021.2 hPa Calm     85 % 0 mm
Crab Meadow Weather
Compliments of Weather Underground - 3 mb

Script developed by  Jim McMurry - jmcmurry@mwt.net Adapted for the template by  Wim van der Kuil - Leuven-Template.eu

Extremes: In Wyndham, Australia, the temperature reached 90 degrees F for 333 days in 1946.